Location: B?dimalle
(17.1788°N, 80.5377°E)
Time: 18:27:03
(UTC+00:00)

SR - All Passes

Search period start: 18 February 2026 00:00
Search period end: 28 February 2026 00:00
Orbit: 574 x 847 km, 66.7° (Epoch: 17 February)

Date Brightness Start Highest point End Pass type
(mag) Time Alt. Az. Time Alt. Az. Time Alt. Az.
18 Feb - 08:19:26 10° N 08:24:20 35° ENE 08:29:28 10° SE daylight
18 Feb - 10:02:00 10° WNW 10:05:46 19° WSW 10:09:39 10° SSW daylight
18 Feb - 20:55:04 10° SE 20:57:22 14° ESE 20:59:38 10° ENE night (unlit)
18 Feb - 22:35:19 10° WSW 22:38:41 23° WNW 22:42:03 10° NNW night (unlit)
19 Feb - 07:26:40 10° NE 07:29:17 14° ENE 07:31:57 10° E daylight
19 Feb - 09:05:44 10° NW 09:10:58 51° WSW 09:16:28 10° S daylight
19 Feb - 21:39:33 10° SSW 21:43:44 82° WNW 21:47:57 10° NNE night (unlit)
20 Feb - 08:10:46 10° NNW 08:16:06 60° ENE 08:21:41 10° SSE daylight
20 Feb - 09:56:15 10° W 09:57:26 11° WSW 09:58:37 10° WSW daylight
20 Feb - 20:45:24 10° SSE 20:48:57 27° ESE 20:52:31 10° NE night (unlit)
20 Feb - 22:28:36 10° W 22:30:28 13° WNW 22:32:21 10° NW night (unlit)
21 Feb - 07:16:55 10° NNE 07:21:07 23° ENE 07:25:28 10° ESE daylight
21 Feb - 08:57:56 10° NW 09:02:40 30° WSW 09:07:34 10° SSW daylight
21 Feb - 21:31:29 10° SW 21:35:26 41° WNW 21:39:25 10° N night (unlit)
22 Feb - 08:02:23 10° NNW 08:07:49 82° WSW 08:13:32 10° SSE daylight
22 Feb - 20:36:30 10° S 20:40:35 53° ESE 20:44:40 10° NNE night (unlit)
23 Feb - 07:07:54 10° N 07:12:54 37° ENE 07:18:07 10° SE daylight
23 Feb - 08:50:40 10° WNW 08:54:19 18° WSW 08:58:06 10° SSW daylight
23 Feb - 19:43:23 10° SE 19:45:51 15° ESE 19:48:17 10° ENE night (unlit)
23 Feb - 21:23:54 10° WSW 21:27:10 22° WNW 21:30:28 10° NNW night (unlit)
24 Feb - 06:14:58 10° NNE 06:17:51 14° ENE 06:20:48 10° E daylight
24 Feb - 07:54:17 10° NW 07:59:31 48° WSW 08:05:00 10° S daylight
24 Feb - 20:28:03 10° SSW 20:32:13 77° WNW 20:36:26 10° NNE night (unlit)
25 Feb - 06:59:16 10° NNW 07:04:39 63° ENE 07:10:17 10° SSE daylight
25 Feb - 08:45:38 10° WSW 08:45:58 10° WSW 08:46:18 10° WSW daylight
25 Feb - 19:33:49 10° SSE 19:37:25 28° ESE 19:41:04 10° NE night (unlit)
25 Feb - 21:17:19 10° W 21:18:58 12° WNW 21:20:38 10° NW night (unlit)
26 Feb - 06:05:19 10° NNE 06:09:40 24° ENE 06:14:09 10° ESE daylight
26 Feb - 07:46:31 10° NW 07:51:12 29° WSW 07:56:03 10° SSW daylight
26 Feb - 20:20:01 10° SW 20:23:54 38° WNW 20:27:52 10° N night (unlit)
27 Feb - 06:50:54 10° NNW 06:56:22 78° WSW 07:02:04 10° SSE daylight
27 Feb - 19:24:57 10° S 19:29:02 56° ESE 19:33:10 10° NNE night (unlit)
